Regional Weather Roundup
Issued by NWS

Home | Current Version | Previous Version | Text Only | Print | Product List | Glossary On
Versions: 1 2 3 4 5 6 7 8 9 10 11 12 13 14 15 16 17 18 19 20 21 22 23 24 25 26 27 28 29 30 31 32 33 34 35 36 37 38 39 40 41 42 43 44 45 46 47 48 49 50
000
ASUS45 KREV 280810
RWRNV
NEVADA REGIONAL WEATHER ROUNDUP
NATIONAL WEATHER SERVICE RENO NV
100 AM PDT MON JUL 28 2014

NOTE: "FAIR" INDICATES FEW OR NO CLOUDS BELOW 12,000 FEET WITH NO
SIGNIFICANT WEATHER AND/OR OBSTRUCTIONS TO VISIBILITY.

NVZ001-003-004-280900-
WESTERN NEVADA

CITY           SKY/WX    TMP DP  RH WIND       PRES   REMARKS
RENO           MOCLDY    78  36  21 N3        30.19R
CARSON CITY    FAIR      73  41  31 E3        30.20S
SLIDE MTN        N/A     61  36  39 CALM        N/A
PYRAMID LAKE     N/A     84 N/A N/A S3          N/A
FALLON         MOCLDY    80  36  20 SW7       30.13R
LOVELOCK       CLOUDY    86  29  12 N16G23    30.09R
HAWTHORNE      CLEAR     82  45  26 E12       30.16S
$$

NVZ002-CAZ072-073-280900-
NORTHERN AND CENTRAL SIERRA

CITY           SKY/WX    TMP DP  RH WIND       PRES   REMARKS
S. LAKE TAHOE  PTCLDY    62  43  49 CALM      30.33S
TRUCKEE        PTCLDY    55  37  50 CALM      30.32S
SQUAW VLY 8000 NOT AVBL
SUSANVILLE     CLEAR     73  36  25 CALM      30.17S
BLUE CANYON    CLEAR     74  32  21 CALM      30.28S
MAMMOTH LAKES  FAIR      63  41  45 CALM      30.42S
BRIDGEPORT     CLOUDY    61  45  55 CALM      30.35F
$$

NVZ030-031-036-280900-
NORTHERN NEVADA

CITY           SKY/WX    TMP DP  RH WIND       PRES   REMARKS
ELKO           CLOUDY    77  44  30 W8        30.22S
WINNEMUCCA     MOCLDY    71  28  20 SW3       30.11R
WENDOVER       CLOUDY    82  45  26 W13       30.14F
$$

NVZ035-037-280900-
CENTRAL NEVADA

CITY           SKY/WX    TMP DP  RH WIND       PRES   REMARKS
ELY            CLOUDY    64  50  60 W8        30.34F
EUREKA           N/A     69  45  41 S5        30.31R
$$

NVZ013-014-280900-
SOUTH CENTRAL NEVADA

CITY           SKY/WX    TMP DP  RH WIND       PRES   REMARKS
TONOPAH        CLOUDY    71  43  36 E6        30.28S
$$

NVZ017-020-022-280900-
SOUTHERN NEVADA

CITY           SKY/WX    TMP DP  RH WIND       PRES   REMARKS
LAS VEGAS      CLOUDY    81  62  52 S9        30.00S
N. LAS VEGAS   MOCLDY    84  59  42 W8        30.02S
NELLIS AFB     MOCLDY    86  57  36 N1        30.01R
HENDERSON      PTCLDY    76  64  66 SW13      30.06F
MERCURY        CLOUDY    80  53  39 E14       30.10S
$$


USA.gov is the U.S. government's official web portal to all federal, state and local government web resources and services.